WGS 10 (USA 291)

Last updated on Thu Nov 21 2024 00:02:44 GMT+0000 (Coordinated Universal Time)

1 44071U 19014A 24324.44916128 .00000048 00000+0 00000+0 0 9991 2 44071 0.0104 306.6518 0000603 293.1437 41.1789 1.00270695 20866
UTC large
Height (km)
Speed (km/s)
/
Latitude / Longitude
Inclination (degrees)
Orbital Period (minutes)
Azimuth
Elevation
Range (km)
Doppler Factor

Next 0 passes for location: London (51.5072 / 0.1276)

Sorry there are no passes over London.